This is the latest recevied weather packets stored in our database for station/object W6TKD-13. If no packets are shown the sender has not sent any weather packets the latest 10 day(s).
| Time | Temp. | Humidity | Pressure | Rain* | Wind** | Luminosity | Snow |
|---|---|---|---|---|---|---|---|
| 1777684504 | 26.67° C | 38% | 1012.1 hPa | 0 mm | - | - | - |
| 1777683836 | 26.67° C | 37% | 1012.2 hPa | 0 mm | - | - | - |
| 1777683169 | 27.22° C | 37% | 1012.3 hPa | 0 mm | - | - | - |
| 1777682502 | 27.78° C | 36% | 1012.3 hPa | 0 mm | - | - | - |
| 1777681839 | 28.89° C | 36% | 1012.3 hPa | 0 mm | - | - | - |
| 1777681167 | 29.44° C | 35% | 1012.3 hPa | 0 mm | - | - | - |
| 1777680501 | 30.56° C | 34% | 1012.3 hPa | 0 mm | - | - | - |
| 1777679834 | 32.22° C | 34% | 1012.4 hPa | 0 mm | - | - | - |
| 1777679167 | 32.78° C | 34% | 1012.4 hPa | 0 mm | - | - | - |
| 1777678500 | 33.33° C | 34% | 1012.5 hPa | 0 mm | - | - | - |
| 1777677833 | 33.89° C | 33% | 1012.5 hPa | 0 mm | - | - | - |
| 1777677166 | 34.44° C | 33% | 1012.7 hPa | 0 mm | - | - | - |
| 1777675832 | 35° C | 33% | 1012.8 hPa | 0 mm | - | - | - |
| 1777675164 | 35° C | 33% | 1013 hPa | 0 mm | - | - | - |
| 1777674498 | 35° C | 33% | 1013.1 hPa | 0 mm | - | - | - |
| 1777673832 | 35.56° C | 33% | 1013.3 hPa | 0 mm | - | - | - |
| 1777673166 | 35.56° C | 32% | 1013.4 hPa | 0 mm | - | - | - |
| 1777672497 | 36.11° C | 32% | 1013.5 hPa | 0 mm | - | - | - |
| 1777671830 | 35.56° C | 32% | 1013.6 hPa | 0 mm | - | - | - |
| 1777669832 | 36.67° C | 31% | 1013.5 hPa | 0 mm | - | - | - |
| 1777669161 | 37.22° C | 31% | 1013.5 hPa | 0 mm | - | - | - |
| 1777668494 | 36.67° C | 31% | 1013.6 hPa | 0 mm | - | - | - |
| 1777667827 | 35.56° C | 32% | 1013.7 hPa | 0 mm | - | - | - |
| 1777667161 | 34.44° C | 33% | 1013.7 hPa | 0 mm | - | - | - |
| 1777666493 | 33.33° C | 34% | 1013.8 hPa | 0 mm | - | - | - |
* Rain since midnight (hover to see other rain measurements)
** Current wind speed in m/s (hover to see current wind gust speed)